GFSMA_sfc_wetblb_021.txt.gz
Wetbulb
60.01 58.64 57.80 58.70 58.78 57.05 55.44 52.72 50.48 49.12 48.96 47.81 47.28 47.15 46.82 47.24 47.32 48.23 50.96 51.60 54.27 56.27 56.67 57.40 58.26 58.98 59.41 60.97 61.51 60.90 60.02 58.53 58.40 59.33 59.19 59.65 60.47 60.21 59.90 60.83 60.25 59.82 60.19
59.50 57.50 56.74 57.31 56.94 55.66 53.66 50.62 49.50 48.82 48.42 48.13 46.34 46.25 46.09 46.46 46.64 47.61 50.28 52.07 54.43 55.81 55.32 56.67 57.10 58.15 58.25 58.73 57.49 58.35 58.25 56.50 57.13 57.19 56.95 57.23 57.73 58.37 58.26 58.20 58.02 57.86 58.22
58.76 56.56 55.59 55.68 55.42 53.87 51.33 49.71 48.69 48.63 47.34 46.63 46.12 45.42 45.55 45.89 46.43 46.67 48.95 51.97 53.25 51.97 55.39 57.95 58.46 57.87 57.64 54.71 56.21 58.85 56.35 54.23 55.23 56.36 54.84 55.72 56.34 56.89 56.87 57.17 56.41 56.37 56.59
57.89 55.52 54.05 53.95 53.89 50.85 48.79 47.93 47.00 46.35 46.38 45.71 45.17 44.88 45.35 45.73 45.50 46.13 47.41 51.07 52.81 52.43 50.44 51.25 52.92 53.35 53.44 54.04 57.61 56.58 54.35 56.79 55.37 54.17 54.34 55.77 55.94 55.79 54.95 54.96 55.61 56.13 56.56
56.81 54.33 53.02 52.84 51.74 48.35 47.28 46.75 46.00 46.00 45.37 45.26 44.99 44.82 45.14 45.13 44.92 45.01 46.52 48.52 47.15 48.87 48.51 45.42 46.56 48.18 49.21 52.82 53.82 54.14 53.97 53.50 53.13 53.56 53.06 52.33 52.93 53.07 53.37 53.59 53.51 54.01 54.57
55.86 53.60 52.09 51.29 49.40 47.17 46.25 46.31 45.62 46.02 45.80 45.05 41.72 42.73 44.14 44.93 44.56 44.90 44.60 44.17 44.21 44.29 45.24 44.84 45.97 47.00 49.11 50.50 52.05 53.12 53.16 52.89 50.95 50.23 50.53 50.45 50.90 51.31 51.76 52.20 52.42 52.32 52.72
55.19 52.92 50.97 49.98 47.92 46.22 45.80 45.98 45.48 44.40 44.68 44.21 42.21 41.83 41.79 42.55 42.77 43.46 43.95 43.24 42.01 42.36 42.87 43.58 44.42 46.86 48.10 49.57 51.57 52.76 52.05 49.89 48.70 47.92 47.85 48.49 48.95 49.44 50.04 50.45 50.85 51.12 51.50
54.32 51.98 50.24 48.72 47.14 45.55 45.46 45.13 44.47 42.69 43.90 43.33 42.42 41.86 37.86 38.37 40.90 41.88 42.36 41.71 41.01 41.34 40.72 41.21 42.39 43.45 47.11 47.10 47.62 48.07 47.30 46.58 46.30 46.10 45.84 46.14 46.89 47.84 48.54 49.10 49.53 49.96 50.41
53.72 51.81 49.86 48.64 46.82 45.53 44.38 44.48 44.19 42.88 41.16 42.13 44.82 44.44 40.67 39.88 38.05 40.38 40.14 40.33 39.78 39.94 40.04 39.92 40.46 41.73 45.17 43.38 43.08 40.27 41.13 41.90 43.01 43.36 43.95 44.77 45.48 46.34 47.16 47.72 48.15 48.68 49.21
51.94 51.44 49.66 48.75 47.08 45.41 44.73 44.25 44.14 43.56 43.33 39.61 41.36 42.50 43.16 43.92 39.45 34.03 38.91 39.08 39.05 38.81 39.28 39.39 39.29 40.10 43.72 42.62 39.32 36.84 37.71 38.26 38.71 39.91 40.86 41.96 43.24 44.35 45.42 46.21 46.77 47.38 47.89
49.76 50.09 49.48 48.43 46.90 45.35 44.58 43.95 42.78 42.77 43.44 42.28 40.23 40.15 39.86 40.66 42.11 41.42 35.10 35.50 37.98 38.41 38.94 38.81 39.10 39.15 41.66 40.49 38.41 34.75 35.54 36.63 36.82 37.24 38.10 39.02 40.56 42.04 43.46 44.51 45.43 46.00 46.42
47.46 47.42 48.00 47.61 46.77 45.42 44.07 43.78 42.91 42.30 42.29 42.86 41.85 41.91 39.95 38.85 37.89 39.29 39.54 36.54 35.22 36.59 37.94 37.87 38.20 38.63 39.89 40.03 37.90 34.07 33.45 34.70 35.72 36.10 36.28 36.75 37.92 39.10 40.56 42.25 43.40 44.09 44.70
45.52 45.09 45.82 45.53 45.16 45.13 44.14 43.68 42.56 41.49 41.70 41.35 42.06 41.36 41.40 41.52 42.35 40.57 40.53 37.09 35.79 35.88 36.00 36.97 37.27 38.22 38.88 38.35 34.65 33.26 31.89 32.84 34.22 35.27 35.38 35.72 36.46 37.32 38.19 39.79 40.92 41.71 42.33
45.05 45.73 44.67 44.60 44.22 44.02 43.65 42.83 42.06 41.41 41.26 41.06 40.93 41.68 40.98 41.10 41.12 40.07 38.96 36.26 33.96 33.20 34.18 34.06 36.82 37.45 37.78 36.65 35.28 32.27 31.55 31.69 32.86 34.55 34.96 35.27 35.83 36.71 37.56 38.75 39.53 40.04 40.70
42.73 43.28 43.78 42.90 42.59 42.53 42.14 41.81 40.62 40.06 39.92 40.21 40.09 40.36 39.88 40.06 40.15 39.79 39.84 38.82 36.27 31.23 30.84 34.22 32.82 36.52 36.66 35.69 32.55 30.53 32.22 32.59 32.32 33.83 34.28 34.81 35.29 36.31 37.36 37.92 38.32 38.81 39.58
40.30 40.62 41.05 41.24 40.99 40.73 40.49 39.92 39.38 39.27 38.59 38.73 38.99 38.68 38.80 39.06 39.05 39.00 38.55 38.00 38.40 37.62 33.57 34.63 34.03 34.54 35.31 33.91 33.57 31.07 31.38 32.41 31.35 32.95 33.34 33.98 34.64 35.88 36.74 36.65 37.19 37.77 38.26
38.00 37.67 38.01 38.13 38.57 38.64 39.38 38.77 37.89 37.85 37.13 37.19 37.38 37.38 37.32 37.99 37.41 37.04 36.65 36.22 35.09 36.09 37.37 30.93 34.15 34.48 33.31 31.57 30.12 29.48 30.75 29.58 30.05 32.27 32.70 33.54 34.22 35.41 35.55 35.49 35.81 36.49 36.91
36.63 36.39 36.43 35.95 36.15 36.89 37.48 36.86 36.46 35.53 35.83 35.50 35.93 35.42 35.61 35.52 36.00 36.14 35.34 34.26 33.78 34.17 34.93 28.47 30.37 30.49 31.08 31.40 28.79 27.19 27.16 28.40 29.70 32.73 32.91 33.33 34.08 35.01 34.57 34.56 34.81 35.07 35.36
33.75 35.03 34.82 34.79 34.89 34.95 35.33 35.89 35.42 35.09 35.21 35.35 35.40 34.95 34.38 34.75 33.70 34.58 34.32 33.55 33.13 29.63 33.03 30.37 27.21 28.69 28.83 30.01 28.12 27.53 27.88 27.48 27.87 30.92 32.96 32.88 33.67 34.26 34.05 34.14 34.27 34.22 33.85
31.88 32.67 33.05 33.04 33.45 33.74 33.40 33.71 33.40 34.00 34.14 34.46 34.82 34.64 34.67 33.82 33.70 33.48 33.15 33.07 32.36 31.18 31.31 30.57 26.60 26.47 26.15 26.86 26.57 25.04 24.47 27.02 26.99 28.36 29.72 30.64 31.62 32.42 32.98 33.59 33.39 32.56 31.82
30.33 31.13 31.09 31.79 32.06 32.15 31.79 32.12 32.21 32.32 32.14 32.62 33.49 33.18 33.58 33.77 34.23 34.45 32.93 32.55 31.58 31.19 29.93 28.95 26.93 25.19 24.72 23.40 23.17 25.46 25.46 26.36 27.06 28.58 26.92 27.58 27.66 28.04 29.10 32.14 30.90 30.94 31.07
28.47 29.06 28.80 29.47 30.08 30.66 33.27 34.31 33.84 31.96 31.21 30.68 30.62 32.11 31.98 31.71 32.70 35.09 36.09 36.24 33.74 31.35 29.72 28.88 27.98 25.98 25.14 25.33 25.09 25.11 25.34 25.50 23.29 29.27 27.23 26.83 27.99 27.48 27.70 27.83 31.17 31.41 31.25
26.41 26.48 27.47 28.33 28.42 29.78 32.50 33.50 34.34 32.20 31.34 31.04 30.37 30.35 30.56 30.67 30.55 30.82 34.27 35.57 35.45 36.22 35.74 31.24 29.46 28.13 26.64 26.20 25.78 25.96 25.43 25.68 26.10 26.80 27.29 24.93 26.71 24.87 27.15 27.50 31.10 31.17 30.98
24.11 24.27 25.41 26.86 27.46 28.28 31.39 32.46 33.32 32.20 31.64 31.52 31.47 30.84 30.20 30.25 30.38 29.29 29.31 30.95 31.53 31.37 33.07 32.74 31.78 31.43 30.02 28.48 28.26 27.98 27.22 27.29 26.25 24.72 25.32 21.34 25.24 23.74 25.98 26.90 30.42 30.78 30.85
21.88 22.15 23.42 23.58 24.49 26.41 30.02 30.99 31.11 31.16 30.82 30.77 31.26 31.63 30.96 30.39 32.19 33.36 28.48 28.86 29.53 30.16 32.88 35.09 34.12 34.30 32.61 31.87 30.40 27.50 24.61 23.42 22.27 22.38 24.05 22.09 22.85 22.98 24.18 23.78 25.32 29.50 30.46
20.51 21.13 20.84 21.95 22.55 23.15 27.93 29.65 29.85 29.62 29.58 29.88 30.90 30.93 31.24 31.20 32.87 33.55 29.53 28.22 27.35 28.57 28.28 28.94 28.72 30.27 30.56 30.53 31.75 28.09 26.33 22.97 21.82 19.76 23.04 20.11 20.78 21.55 19.32 24.22 24.86 25.92 26.10

GFSMA_sfc_wetblb_024.txt.gz
Wetbulb
56.71 54.48 53.17 53.49 54.19 52.06 50.50 48.01 44.43 43.96 43.08 42.85 42.97 42.70 42.26 42.07 42.04 42.91 45.51 52.72 56.28 56.58 57.48 58.42 59.03 59.55 60.30 61.24 61.15 61.10 59.23 58.55 59.89 59.55 59.74 60.65 60.36 60.09 60.74 59.40 59.20 60.00 60.69
56.20 53.61 51.81 52.65 53.11 51.05 49.11 45.57 43.74 42.65 41.99 41.96 41.72 42.15 41.40 41.36 41.99 42.54 45.60 49.31 55.13 56.87 56.41 57.82 58.28 59.42 58.95 59.08 58.28 59.36 57.61 56.73 57.60 57.19 57.59 58.05 58.70 58.31 58.43 57.74 57.66 57.85 58.63
55.93 53.04 50.97 51.43 51.45 49.66 47.07 43.75 42.80 42.48 41.27 41.86 40.47 40.97 40.98 41.31 41.59 42.44 44.05 47.84 49.37 53.20 55.84 58.60 59.34 58.92 58.01 55.42 56.80 58.89 56.48 54.65 57.73 55.14 55.85 56.76 57.13 57.37 57.12 55.87 56.59 57.14 57.46
55.70 52.06 50.16 50.21 49.93 47.36 43.89 42.03 40.79 40.30 39.64 39.26 38.34 38.46 39.28 40.60 40.84 41.56 42.44 45.64 48.35 47.92 49.62 52.24 54.01 54.95 54.40 57.47 59.29 57.31 55.89 57.16 55.82 53.84 56.00 55.84 55.49 54.74 54.18 54.85 54.89 55.63 56.18
55.38 51.38 49.06 49.01 48.18 44.55 41.92 41.74 39.79 39.54 38.25 38.28 38.94 37.82 38.32 38.49 39.33 41.69 41.67 44.06 42.16 43.87 43.59 47.26 48.48 49.54 50.94 55.27 55.54 55.79 54.92 54.32 53.56 53.50 52.41 52.65 52.29 52.69 52.98 53.54 54.26 54.27 54.75
54.59 49.94 47.71 47.59 45.84 42.28 40.69 40.21 39.04 39.05 38.60 38.43 39.67 38.85 37.69 38.24 38.05 38.16 40.20 40.94 39.68 39.85 40.58 39.76 40.04 43.75 50.01 51.32 54.11 54.86 54.33 53.70 51.47 50.94 50.86 50.60 50.67 50.89 51.16 51.62 52.27 53.01 53.35
53.14 49.57 46.54 45.72 43.43 42.07 41.18 40.06 38.90 38.27 37.88 37.12 36.09 35.31 35.73 37.01 37.04 37.60 38.07 37.18 37.60 38.49 37.75 38.40 38.45 41.60 44.33 50.27 52.69 54.19 54.06 51.23 49.66 48.62 48.50 48.93 49.09 49.27 49.64 50.13 50.71 51.33 51.81
52.62 49.63 46.39 44.32 42.30 40.37 39.75 39.69 38.77 37.31 37.34 37.68 35.12 33.74 30.50 32.84 35.14 36.90 36.83 37.40 35.71 36.54 36.70 37.98 37.38 39.24 41.97 43.27 47.26 52.52 51.89 49.53 48.13 46.82 46.24 46.65 47.41 48.04 48.56 49.03 49.45 49.88 50.34
51.94 50.48 46.93 44.27 42.33 40.56 40.10 39.35 38.84 38.79 35.33 36.09 37.94 36.32 32.00 31.06 31.28 34.19 34.73 35.53 34.83 34.55 34.79 35.65 37.08 38.29 40.92 40.93 41.38 44.31 45.78 45.80 46.01 45.48 45.55 45.45 45.66 46.39 47.12 47.57 48.06 48.61 49.07
49.07 49.54 48.00 44.83 42.54 40.82 39.33 38.80 39.72 39.44 36.60 36.21 34.82 38.39 35.94 35.27 31.45 28.16 32.68 33.71 33.77 34.60 33.72 34.04 34.79 36.59 39.34 38.05 38.67 39.11 41.52 42.28 42.20 42.94 42.93 43.23 44.01 44.85 45.68 46.13 46.62 47.16 47.54
46.03 46.52 46.19 44.72 43.11 41.22 39.00 38.53 37.45 37.02 38.22 36.30 36.82 33.44 33.30 33.65 34.42 31.08 27.48 29.50 32.15 32.87 33.83 33.86 33.94 34.54 38.35 35.19 33.31 36.57 39.54 40.19 40.15 40.40 40.60 40.96 41.89 42.76 43.72 44.46 45.07 45.54 46.05
42.58 43.56 44.05 43.74 43.28 41.31 39.03 38.16 37.68 37.14 36.47 36.60 36.68 34.36 33.88 32.89 31.63 31.93 30.48 28.26 28.77 30.48 32.51 33.52 33.58 34.05 35.70 34.92 36.22 36.90 37.89 39.17 39.79 39.71 39.65 39.73 40.44 41.00 41.79 42.64 43.25 43.75 44.30
39.55 40.67 41.12 40.65 41.41 41.37 39.87 38.50 37.27 36.13 36.67 36.25 35.50 37.04 35.00 35.09 35.12 34.24 32.89 29.30 28.56 29.52 30.44 31.44 32.66 34.47 36.35 35.57 33.50 34.93 36.28 37.56 38.96 39.28 38.82 38.67 39.33 39.59 40.04 41.01 41.31 41.70 42.13
37.37 38.56 38.98 39.28 40.18 40.42 39.71 38.11 36.56 35.71 35.61 36.83 34.81 34.75 35.14 35.46 35.76 34.37 33.28 30.07 27.33 26.58 27.47 27.86 31.27 33.78 34.64 34.25 32.42 34.98 31.13 35.81 37.56 38.71 38.73 38.45 38.66 38.91 39.21 39.96 40.11 40.20 40.68
37.45 36.51 36.24 36.26 37.13 37.94 37.88 37.29 34.85 34.45 34.57 34.44 35.89 34.58 34.38 34.58 34.83 35.38 34.12 32.65 31.37 24.83 26.67 27.06 27.98 33.07 34.62 34.77 33.46 31.31 28.32 34.12 36.26 37.89 38.12 38.30 38.57 38.91 39.27 39.48 39.32 39.53 39.85
35.18 34.59 34.24 34.40 34.74 35.40 35.65 34.99 33.94 33.66 33.48 33.02 34.31 33.39 33.84 33.43 34.46 34.19 34.09 33.12 32.09 30.75 26.99 27.94 28.89 30.68 34.45 34.45 33.40 28.94 27.85 32.92 35.20 36.47 37.15 37.44 37.69 38.27 38.83 38.89 38.52 38.62 38.72
33.14 33.52 33.53 33.11 32.90 33.15 33.59 32.89 32.95 33.06 32.48 32.27 32.47 31.87 32.20 32.81 34.67 33.32 32.55 32.89 32.52 31.41 28.92 26.38 28.11 29.38 31.20 31.15 30.47 28.12 29.31 28.37 29.28 34.51 36.03 36.51 36.67 37.06 37.99 37.80 37.53 37.52 37.67
30.97 31.40 32.33 31.92 32.19 32.40 32.19 31.82 31.94 32.36 31.49 31.37 31.53 31.64 31.74 33.56 32.16 30.86 30.89 33.01 34.43 30.99 29.16 24.04 25.89 27.04 28.43 30.32 28.90 26.90 26.64 27.76 27.12 31.76 35.20 35.72 36.11 36.32 37.01 37.05 36.66 36.53 36.20
28.42 28.90 29.74 30.26 30.15 30.59 30.93 31.63 31.82 31.63 31.58 31.93 32.23 31.38 32.64 30.31 31.69 33.21 31.02 32.04 32.54 31.62 29.64 24.31 24.04 25.49 25.21 28.64 24.39 24.33 24.32 24.39 26.75 31.11 35.21 35.39 35.55 35.97 36.81 36.50 36.00 35.68 35.04
26.84 26.54 27.30 28.54 29.59 29.34 29.92 30.20 30.20 30.42 30.98 31.57 31.75 31.73 32.16 31.19 31.88 31.65 31.87 31.44 31.66 30.91 31.63 26.08 23.23 24.61 23.95 27.28 26.88 24.77 23.72 25.55 24.74 26.74 30.43 32.30 33.96 34.89 36.32 36.32 35.56 34.98 34.27
26.50 26.25 25.83 26.20 26.61 28.30 29.39 29.23 29.58 28.94 29.55 30.35 30.68 30.87 31.61 32.06 33.61 33.84 32.08 32.69 31.46 31.41 31.29 29.79 24.57 21.37 22.87 24.33 24.88 25.27 24.92 24.34 24.44 25.33 25.06 26.15 27.92 29.35 31.24 34.64 32.78 33.67 33.33
23.64 23.66 24.16 24.28 24.70 26.67 30.55 32.16 31.99 30.08 30.24 30.02 29.81 30.47 30.79 30.91 32.14 35.49 36.68 36.90 34.80 31.85 31.64 31.09 29.60 26.13 25.83 25.84 26.70 25.23 25.27 23.53 21.54 26.62 25.42 24.48 26.31 25.88 27.87 29.00 32.19 33.20 32.99
21.74 21.82 22.40 22.67 23.04 24.62 29.51 30.74 32.10 29.79 29.62 30.00 29.99 30.15 30.25 30.29 30.46 30.55 33.66 36.11 36.51 37.38 36.60 32.58 30.89 29.44 27.62 26.42 26.16 25.43 25.51 26.66 26.47 26.24 26.72 24.09 25.51 25.49 27.94 28.73 32.62 33.26 33.30
20.58 20.70 20.96 21.26 21.38 22.97 27.74 29.24 30.29 28.43 28.19 28.92 29.71 29.96 29.95 30.35 30.70 29.99 29.69 29.98 31.06 32.70 34.15 34.36 32.65 33.20 31.50 28.62 28.47 28.38 27.49 28.12 24.99 26.07 27.22 22.72 26.39 25.30 25.43 26.38 32.51 33.34 33.14
19.93 19.28 19.90 19.17 19.14 20.15 25.17 26.59 27.06 25.24 26.19 26.77 28.48 29.47 29.58 29.75 32.35 34.05 30.69 28.78 29.20 30.11 33.97 36.36 36.77 36.72 36.71 34.72 31.18 28.71 25.54 22.83 18.05 20.92 24.95 23.00 22.80 22.99 24.93 25.07 26.80 32.71 32.17
19.16 19.25 18.25 18.45 18.08 17.21 22.29 24.17 24.52 22.58 22.57 24.71 26.34 27.97 30.10 30.55 32.84 34.13 31.21 30.17 27.40 28.27 29.86 30.97 31.34 33.93 35.36 33.42 32.97 29.87 27.67 24.45 23.12 16.89 23.43 21.52 21.52 21.48 19.12 23.87 24.75 25.59 27.02

GFSMA_sfc_wetblb_030.txt.gz
Wetbulb
60.28 58.45 56.50 54.45 52.71 51.21 50.00 48.35 47.31 44.27 41.14 40.32 40.30 40.07 39.42 39.09 39.76 43.18 44.53 53.08 56.22 57.85 59.37 59.52 60.07 60.18 60.24 60.77 60.71 60.96 59.34 60.32 59.62 59.91 61.02 60.98 61.09 60.48 60.16 59.79 59.97 60.61 61.41
60.40 57.68 55.43 52.79 51.47 50.69 49.03 47.99 46.45 41.82 39.97 39.45 39.66 39.58 39.17 38.87 39.43 42.67 44.96 48.52 55.62 57.21 58.80 59.78 60.32 60.69 61.87 61.92 62.42 60.57 58.63 58.80 57.71 57.00 58.12 59.59 59.53 59.09 58.36 56.85 56.44 57.59 59.13
60.81 57.32 54.90 53.40 52.61 50.44 48.68 46.61 43.71 40.36 38.67 38.54 38.12 38.76 38.59 38.62 39.01 40.83 44.89 47.20 48.27 54.97 58.14 59.41 60.59 61.18 60.55 60.34 60.13 59.34 57.47 56.97 56.39 55.28 57.20 57.28 57.53 57.62 55.51 55.06 55.92 56.10 56.86
59.71 56.32 54.79 54.01 53.49 51.59 48.10 44.68 41.34 39.07 37.85 36.95 35.94 36.46 36.87 37.91 38.66 39.56 41.85 46.10 46.38 47.65 52.12 55.65 59.50 60.28 60.18 59.04 59.35 59.74 56.53 57.20 55.73 55.51 56.28 57.51 56.64 56.00 54.33 54.50 54.76 55.11 55.56
58.04 56.57 54.86 53.71 52.37 51.15 45.93 44.26 39.22 38.87 36.96 36.01 36.16 35.34 35.38 36.15 37.07 39.25 38.84 43.91 45.26 45.12 44.74 50.52 51.17 52.75 55.61 58.01 59.88 59.53 58.30 57.82 55.17 55.14 54.18 54.03 53.80 53.68 53.50 53.62 53.71 53.84 54.42
56.24 54.90 53.21 51.84 51.05 48.90 43.34 40.48 39.26 37.19 36.88 36.23 37.77 36.10 34.20 35.38 35.77 35.79 37.27 41.48 41.25 42.97 42.56 41.25 41.25 44.14 51.03 55.29 58.75 58.94 58.11 56.86 55.44 54.15 53.23 52.72 52.82 53.01 52.65 52.43 52.59 53.05 53.34
55.25 53.98 52.63 51.54 48.83 47.88 46.39 42.36 38.04 37.19 35.48 34.94 34.00 33.22 33.29 34.40 34.71 34.75 35.99 37.85 37.72 38.38 39.10 38.95 38.70 40.35 43.49 52.31 56.22 58.21 57.85 57.33 55.19 53.59 52.84 52.10 51.99 51.97 52.16 51.97 52.09 52.41 52.48
55.10 52.87 51.47 50.19 48.66 45.15 43.01 41.04 39.77 35.61 35.92 35.00 33.21 30.87 30.20 32.31 33.35 34.41 34.65 36.39 35.90 35.75 36.21 37.02 36.88 38.87 40.39 42.73 46.64 56.34 57.58 57.34 55.65 53.86 52.49 51.93 51.37 51.36 51.74 51.86 51.73 51.73 51.98
49.73 50.65 50.16 47.79 46.14 44.81 43.43 41.63 39.97 39.26 37.01 34.54 33.98 33.63 27.94 28.76 29.12 31.31 32.59 33.94 34.36 33.41 34.10 34.88 35.93 36.57 38.75 41.15 45.89 50.09 56.11 56.51 55.31 53.64 52.42 51.31 50.99 51.04 51.20 51.18 51.02 51.04 51.27
41.82 43.77 46.27 47.28 45.52 43.77 42.72 41.43 40.85 39.56 38.52 36.70 33.59 35.39 33.28 31.89 29.34 28.99 30.75 31.72 33.03 33.47 32.64 33.00 33.72 34.87 36.56 40.05 43.30 45.46 49.24 55.49 54.10 52.45 51.09 50.46 50.59 50.68 50.96 50.93 50.80 50.82 50.79
37.73 37.36 38.52 41.15 42.91 44.39 42.26 40.69 39.68 38.38 38.33 38.29 35.74 32.66 31.33 32.12 31.39 29.37 28.94 28.87 30.46 31.97 33.27 33.87 33.42 33.57 34.71 38.56 38.31 41.03 49.49 52.20 51.27 50.11 49.15 48.85 49.07 49.84 50.44 50.69 50.65 50.71 50.70
35.46 35.39 35.75 35.83 37.05 38.23 39.79 41.25 40.04 38.96 38.50 38.37 37.17 36.09 35.52 32.56 31.19 30.84 28.12 28.18 28.22 30.35 31.67 32.15 32.52 33.82 33.51 36.59 39.12 40.91 46.96 49.49 49.01 47.96 47.23 47.16 47.04 48.00 49.24 49.94 50.28 50.26 49.99
32.65 33.20 33.59 33.32 33.99 34.66 35.66 36.80 37.92 38.52 38.12 37.72 38.29 38.33 37.45 36.65 35.66 33.32 31.13 28.43 27.84 28.97 28.65 29.81 32.92 32.99 34.19 34.70 36.84 39.55 42.85 46.95 47.84 47.04 46.00 45.56 45.52 45.98 47.12 48.46 49.03 48.99 48.88
30.98 31.90 31.94 32.03 32.41 33.15 33.31 33.55 34.00 34.01 35.72 36.49 36.41 36.78 37.26 36.84 36.71 36.67 35.83 30.26 28.99 26.94 27.03 28.00 29.42 31.98 33.46 33.58 35.96 39.24 37.55 44.19 46.02 46.36 45.35 44.47 44.41 44.83 45.36 46.63 47.61 47.45 46.92
30.71 30.47 30.58 30.39 30.60 30.99 31.08 31.47 30.76 30.74 31.32 32.32 32.89 33.28 33.81 35.64 34.34 34.37 36.05 35.82 34.69 30.94 32.56 27.71 28.22 30.26 33.35 33.59 35.24 35.91 35.76 39.95 43.79 44.73 44.36 43.88 43.73 43.96 44.53 45.07 46.17 46.42 46.20
28.17 28.41 28.26 29.10 29.50 29.59 29.44 29.16 29.18 30.38 29.68 30.29 31.86 31.85 32.80 34.09 33.38 32.81 33.57 35.64 34.88 34.20 31.35 31.08 28.92 29.57 31.78 33.59 34.31 34.86 35.02 36.43 41.17 43.45 43.43 43.28 43.25 43.28 43.70 44.07 44.77 45.57 45.48
25.29 25.41 26.07 26.73 27.26 27.85 27.35 27.65 28.05 28.24 28.09 28.88 29.50 29.65 30.55 32.09 33.01 32.30 30.79 32.40 33.70 34.37 32.14 34.74 29.13 28.82 28.31 30.70 31.12 34.08 34.04 32.91 35.03 40.61 42.46 42.59 42.47 42.50 42.77 43.18 43.72 44.35 44.45
25.99 24.76 25.22 25.27 25.57 25.57 25.67 26.36 26.32 27.21 27.19 26.78 27.71 28.46 29.20 31.60 30.09 31.02 31.60 31.13 30.49 31.92 32.62 32.21 34.27 26.51 27.47 29.21 31.49 31.12 31.93 31.85 32.16 36.34 40.43 40.93 41.64 41.89 41.86 42.21 42.65 43.12 42.87
24.89 24.45 24.34 24.13 24.89 24.81 24.66 24.76 24.87 25.61 26.05 26.79 26.97 27.79 27.95 28.64 29.32 30.30 30.48 30.90 31.26 32.18 30.90 30.60 31.21 27.28 26.58 27.35 27.22 28.18 29.88 28.72 29.69 33.21 38.74 40.58 40.82 41.21 41.13 41.35 41.54 42.26 41.71
24.54 24.08 23.63 23.97 24.21 24.20 24.35 24.45 24.78 24.41 25.34 26.50 27.22 27.50 28.04 28.01 28.03 28.69 29.56 30.34 30.90 30.75 30.63 29.98 30.04 30.59 25.50 26.37 28.22 28.03 25.67 27.06 27.51 28.80 32.81 36.17 38.20 39.47 40.69 40.86 40.74 40.44 40.42
24.05 23.91 23.47 23.02 22.90 22.99 23.55 23.31 24.52 24.36 24.57 25.38 26.39 26.85 27.49 28.41 30.50 31.08 29.40 29.17 29.60 30.14 30.22 29.64 29.24 29.01 25.45 24.29 26.06 26.96 28.35 27.59 27.27 28.75 26.62 29.02 31.85 33.79 35.42 39.58 38.04 38.83 40.18
22.03 21.92 21.59 21.54 21.36 22.89 26.04 27.12 26.35 23.77 23.94 23.64 23.56 24.95 25.88 27.14 28.84 31.55 32.62 34.10 33.18 29.53 28.46 29.44 29.37 28.98 29.62 27.23 28.68 28.36 27.26 26.14 24.96 27.48 25.49 25.76 28.61 29.18 31.45 33.47 37.80 38.70 39.96
18.36 18.06 18.49 19.12 19.20 20.32 24.66 25.75 26.17 23.98 22.87 22.16 22.08 22.92 23.87 25.43 26.06 26.65 29.58 31.47 31.84 33.97 35.42 31.98 29.52 29.66 29.90 30.87 28.99 27.67 27.18 28.42 28.80 25.85 27.29 25.96 27.30 26.73 29.80 31.60 36.54 38.83 39.45
14.25 14.31 14.62 15.19 15.46 17.10 21.43 22.14 22.13 20.45 20.23 20.83 21.16 21.11 20.90 21.33 22.84 24.21 25.30 25.89 27.05 27.88 28.75 30.36 31.71 32.59 33.12 32.80 31.56 29.98 30.02 28.52 30.20 26.33 27.85 25.25 27.80 24.96 28.04 29.82 35.11 37.24 39.27
10.07 9.70 11.61 11.09 10.53 11.16 16.52 18.01 18.36 15.80 16.12 16.41 18.18 18.48 18.69 19.10 22.31 24.68 22.35 21.63 23.46 26.26 30.93 33.33 34.34 35.00 36.45 37.51 36.49 31.85 28.48 27.02 25.38 27.34 25.33 25.81 24.72 24.85 26.00 26.74 28.63 35.54 38.22
8.43 8.90 8.29 8.40 8.09 7.07 12.97 15.50 16.60 13.97 12.14 13.63 15.36 17.39 19.80 19.87 22.53 24.09 21.42 20.68 20.23 22.93 25.75 27.23 28.09 30.65 34.21 33.77 36.12 35.43 30.71 27.51 26.44 26.75 26.58 24.34 24.84 24.19 22.32 26.22 26.87 28.23 32.95

GFSMA_sfc_wetblb_033.txt.gz
Wetbulb
60.49 59.05 57.91 56.91 56.07 54.30 51.44 49.72 48.19 46.86 42.23 39.97 39.51 39.00 38.53 38.36 38.92 41.56 42.30 50.89 54.89 57.87 59.90 60.30 59.99 60.18 60.54 60.91 60.85 60.19 59.62 60.05 58.38 59.07 61.07 61.18 60.97 60.88 60.10 59.79 59.99 61.03 61.71
58.80 59.08 57.41 56.18 55.07 53.75 50.71 49.31 47.65 45.49 40.88 38.87 38.93 38.89 38.38 38.02 38.15 40.98 42.55 46.86 54.33 56.92 59.24 59.92 60.58 60.74 60.89 61.05 61.03 61.28 58.96 59.02 57.42 56.72 58.56 59.36 59.61 58.74 57.81 57.71 57.40 58.30 59.66
60.12 59.18 57.24 55.37 55.01 53.02 50.21 47.90 45.99 42.73 39.57 38.27 37.48 37.86 37.74 37.70 37.77 38.63 42.35 45.55 47.64 52.57 57.21 59.33 60.25 61.24 61.66 61.85 62.87 60.36 58.72 57.02 57.03 55.29 57.24 57.85 57.49 56.77 55.28 54.85 55.36 56.01 57.61
60.29 58.02 56.23 55.01 54.87 52.85 51.63 49.33 46.35 41.84 39.51 37.27 35.92 35.93 35.90 36.59 37.42 37.96 40.47 44.13 45.97 47.52 50.47 55.95 58.22 60.44 61.23 60.76 60.44 60.01 58.86 57.30 57.50 55.40 56.61 57.31 57.29 56.09 54.80 54.80 54.82 55.24 55.55
60.06 58.20 56.51 55.08 53.63 52.83 51.04 48.95 43.88 43.05 38.77 36.83 36.38 35.26 34.81 34.91 36.01 37.88 37.52 39.47 44.48 45.74 45.43 49.74 51.36 51.97 57.71 60.21 59.75 60.10 59.64 57.87 57.61 55.37 56.04 55.02 54.45 54.35 54.00 53.89 53.99 54.02 54.37
57.73 56.67 55.62 54.26 53.15 51.80 48.62 45.84 44.15 40.32 37.73 37.22 37.62 36.14 33.74 34.21 34.83 34.85 35.56 38.28 41.78 43.92 43.79 43.59 42.85 44.83 50.12 54.90 59.01 60.85 59.93 59.40 57.18 55.51 55.27 54.51 54.12 54.15 53.95 53.65 53.26 53.30 53.81
54.95 54.54 54.24 53.23 51.62 50.70 49.11 46.36 42.00 40.96 38.85 37.77 34.93 33.89 33.65 34.10 34.00 34.40 34.58 35.53 38.29 39.69 41.15 41.58 40.50 41.02 42.94 52.06 56.26 59.81 59.81 59.39 57.58 56.26 54.63 53.93 53.70 53.30 53.34 53.46 53.39 53.42 53.23
47.43 49.72 49.64 48.60 48.50 47.41 45.35 43.67 41.93 39.72 39.36 37.87 36.62 33.21 31.54 32.99 32.93 33.96 33.68 34.76 35.67 36.89 36.81 38.20 38.10 38.77 39.67 41.36 45.45 54.43 59.11 59.06 58.15 56.41 54.91 54.06 53.34 53.27 53.17 53.18 53.21 53.47 53.35
39.80 41.73 44.57 46.76 45.93 45.43 44.79 43.53 41.80 40.60 39.98 37.87 36.75 37.47 32.69 28.97 28.50 31.18 31.94 32.44 33.49 34.09 34.28 35.02 35.87 36.46 37.33 38.96 43.92 47.87 54.10 57.44 57.89 57.25 55.38 53.80 53.29 52.71 52.96 53.13 53.00 52.86 53.09
36.05 36.74 37.61 39.36 42.32 43.86 43.07 42.12 41.93 40.30 39.22 38.57 36.81 36.83 34.98 34.28 31.72 30.50 30.89 31.21 32.04 33.59 33.02 33.29 33.82 34.45 35.33 36.54 41.15 44.36 47.47 51.68 55.09 57.17 55.05 53.68 52.63 52.36 52.36 52.49 52.64 52.65 52.76
33.82 33.72 34.66 35.18 35.63 36.71 37.62 39.76 40.36 39.39 38.75 38.05 37.28 35.99 34.44 34.44 33.44 31.88 32.16 29.91 30.34 31.68 33.07 33.78 34.06 33.27 34.09 34.48 36.98 40.43 46.18 49.59 52.40 54.56 54.15 52.58 51.83 51.63 51.74 52.03 52.33 52.48 52.64
31.32 31.39 31.91 32.13 33.00 33.53 33.72 34.75 36.19 37.06 38.33 38.58 37.79 36.85 35.56 34.93 33.66 33.11 31.44 32.10 30.82 31.26 31.32 31.73 32.02 34.23 34.08 33.65 37.24 41.65 44.62 47.89 52.68 52.79 52.18 51.41 50.43 50.31 50.61 51.41 51.77 51.92 52.04
28.72 29.22 29.87 29.64 29.97 30.72 31.35 32.18 32.91 33.36 34.76 35.03 36.32 37.87 38.00 36.93 36.53 35.50 34.11 34.70 31.94 30.14 29.43 29.43 31.52 33.20 34.12 32.59 34.71 39.81 42.29 46.09 50.74 51.53 50.50 49.84 49.44 49.19 49.04 49.97 51.03 51.24 51.36
28.46 28.19 28.30 28.34 28.63 29.38 29.39 29.56 29.96 30.23 31.60 31.55 32.54 33.59 35.22 36.71 37.56 36.29 35.37 33.59 32.58 34.49 32.84 29.61 29.09 30.73 32.13 32.68 34.77 38.63 38.15 43.48 47.65 50.47 49.76 48.74 48.51 48.50 47.92 48.31 49.58 50.20 50.28
28.91 28.46 28.13 28.20 28.31 27.78 28.77 28.60 27.76 27.66 28.68 30.39 30.89 31.37 31.93 33.72 34.39 35.09 36.05 35.92 33.83 30.70 32.34 35.64 28.39 30.39 31.20 32.08 34.01 34.60 35.84 39.14 44.28 47.74 49.21 48.65 47.69 47.30 46.95 47.02 47.99 49.10 49.67
25.30 25.32 25.29 25.50 25.54 26.21 26.58 26.58 26.15 26.47 26.74 27.14 28.98 29.40 30.39 31.94 32.30 32.41 32.17 33.34 33.27 32.58 30.53 32.24 33.54 29.88 30.61 32.14 32.84 33.72 34.23 37.68 40.62 44.64 46.72 47.36 46.98 46.04 45.74 45.90 46.55 47.44 48.59
24.70 24.68 24.90 24.50 24.20 24.18 24.18 24.03 24.28 25.09 25.19 25.54 26.21 26.40 27.69 29.71 30.34 31.50 30.99 31.26 31.67 30.93 30.23 32.83 32.94 30.88 29.20 29.57 30.68 32.00 33.66 33.92 35.03 40.87 44.26 45.73 45.86 45.50 44.97 44.83 45.37 45.86 46.75
24.71 24.32 24.34 24.63 23.81 24.00 23.38 22.93 22.63 23.03 23.04 23.59 24.68 25.36 25.57 28.18 27.57 29.24 30.11 30.22 30.57 30.83 30.18 29.15 32.05 32.02 28.07 29.36 30.15 30.62 31.48 32.88 32.91 36.39 41.20 44.05 44.73 44.54 44.51 44.56 44.47 44.82 44.97
23.87 23.94 23.92 23.31 23.22 23.38 23.08 23.03 22.69 22.66 22.57 22.75 23.72 24.54 25.23 25.64 25.79 26.69 27.59 28.59 29.46 30.90 30.15 29.27 29.19 31.29 29.93 27.52 28.42 29.29 30.80 30.83 30.97 34.77 38.44 41.42 43.28 43.81 43.89 43.97 43.91 43.79 43.50
22.91 23.04 23.10 23.10 22.98 22.83 22.98 22.82 23.01 22.34 22.46 23.39 24.02 24.21 24.45 24.88 25.19 25.54 26.20 26.64 27.85 28.25 28.77 28.27 28.37 28.97 29.86 29.06 28.09 27.90 27.22 28.97 29.59 30.16 33.52 35.79 39.40 41.30 42.80 43.26 42.72 41.74 42.04
21.60 21.27 20.56 20.10 20.60 21.13 22.38 22.46 23.42 23.00 22.72 22.69 23.34 23.79 24.00 24.66 27.55 27.83 26.30 26.51 27.01 26.97 27.18 26.97 26.83 27.44 28.14 25.07 26.59 28.68 28.31 30.41 29.00 30.76 28.56 29.56 32.07 35.46 37.36 41.02 39.68 40.16 41.60
17.36 17.25 17.21 17.16 16.94 19.40 22.56 23.78 23.60 21.58 22.20 22.36 22.02 22.69 23.15 23.05 24.30 26.94 28.44 29.68 29.32 26.39 26.15 26.94 26.77 25.95 26.83 27.78 28.63 28.82 27.97 27.41 26.01 29.09 28.81 27.65 29.60 31.03 33.64 35.21 39.15 40.50 41.34
14.47 13.94 14.03 14.24 13.77 14.37 19.13 21.19 21.48 19.31 18.31 17.95 18.67 19.90 21.28 22.72 22.49 22.39 24.21 25.91 26.25 27.96 29.37 27.36 26.57 27.56 27.86 28.66 28.63 27.85 28.78 28.79 28.72 27.78 28.32 26.93 28.36 27.93 31.56 33.35 37.94 40.22 40.60
11.18 10.88 10.86 10.75 11.30 12.72 16.89 17.95 18.46 16.56 15.77 15.91 16.35 17.03 17.32 18.02 19.33 19.74 19.52 19.15 20.50 22.04 23.71 25.58 26.16 26.75 28.21 30.60 30.62 30.86 29.93 29.54 30.42 30.53 28.46 26.14 27.70 26.78 29.11 30.63 35.42 38.15 39.94
8.20 7.37 9.75 8.19 7.13 7.68 13.54 16.05 16.31 13.74 13.90 13.80 15.09 15.81 16.17 16.28 18.77 21.00 18.90 17.00 17.69 19.33 24.00 26.24 27.66 29.48 31.78 33.45 33.07 31.15 28.71 26.92 26.55 27.53 26.31 27.10 28.09 26.08 27.17 27.70 30.15 35.70 38.43
7.49 7.78 7.21 6.44 6.10 4.80 11.11 14.53 15.62 13.23 11.24 12.55 13.84 15.09 17.54 17.52 20.00 21.36 18.32 17.13 15.69 17.46 20.15 21.48 22.42 24.69 27.22 27.93 32.69 31.94 30.67 28.67 28.03 27.14 28.79 25.23 26.67 24.82 21.72 25.73 27.76 29.15 32.85

GFSMA_sfc_wetblb_036.txt.gz
Wetbulb
60.99 60.12 59.31 58.26 57.64 56.21 55.36 53.59 50.65 48.00 45.37 41.20 39.03 38.43 37.91 37.41 37.44 39.37 40.93 47.88 54.03 56.63 59.29 61.06 60.70 60.20 60.25 60.45 60.76 60.29 60.09 59.70 58.54 58.91 60.86 60.65 60.23 60.89 61.06 60.78 60.51 61.05 62.22
60.52 59.81 58.69 56.95 56.70 55.77 54.94 51.57 49.41 47.57 45.13 39.99 39.00 38.51 37.84 37.28 37.16 37.55 40.61 43.23 51.66 55.42 58.32 61.14 60.65 61.09 61.09 60.81 60.94 61.07 59.43 58.61 57.84 57.30 58.36 59.93 59.73 59.34 58.28 58.23 58.16 58.94 59.33
60.70 59.30 57.71 56.89 56.91 55.30 53.27 51.13 49.29 47.15 44.26 39.81 38.19 37.65 37.30 37.15 36.94 37.17 38.35 42.27 45.70 50.49 54.29 58.91 60.71 60.90 61.69 62.27 62.06 62.46 59.80 57.98 57.70 55.90 56.98 58.49 57.44 57.17 56.23 55.29 55.76 56.02 57.28
61.01 59.52 58.17 56.84 56.34 54.53 52.80 50.74 49.14 47.10 45.12 42.18 38.19 36.89 35.67 35.76 36.38 36.77 37.25 40.13 43.68 45.62 49.02 53.68 56.85 58.97 61.36 61.74 61.57 61.43 59.94 58.51 57.95 56.28 56.59 57.74 57.44 56.69 55.62 54.43 55.62 55.43 55.82
58.51 58.99 57.72 57.35 56.00 53.93 51.81 50.73 47.78 46.78 45.00 42.72 40.48 37.06 35.48 34.75 35.17 36.95 35.88 37.01 38.95 44.37 44.65 48.78 51.74 51.06 55.19 59.88 61.52 61.22 60.73 59.10 58.16 56.53 55.93 56.49 55.71 55.53 55.39 54.57 54.39 54.61 54.84
52.52 54.00 53.81 53.12 53.20 52.28 50.25 48.62 47.13 43.19 41.45 41.07 39.79 38.89 35.78 34.93 34.64 34.57 34.91 36.36 37.03 40.27 42.95 43.34 43.62 44.52 50.02 54.82 59.40 59.97 60.53 60.02 58.66 57.37 55.85 55.96 55.61 55.44 55.45 54.72 54.14 53.91 54.05
45.51 47.71 48.97 48.78 49.83 48.50 47.45 46.04 43.92 43.33 42.65 39.11 39.20 38.98 37.87 37.06 34.57 34.53 34.27 34.36 35.19 37.39 39.30 41.50 41.71 41.24 42.40 50.23 54.35 58.05 60.85 60.46 59.99 58.50 56.81 55.68 55.26 54.65 54.73 54.24 54.26 54.38 54.12
40.18 41.65 44.02 45.07 45.47 46.04 45.67 44.53 43.22 41.93 40.98 39.34 37.99 35.75 35.70 35.41 33.60 33.31 33.15 34.11 33.67 34.95 36.27 37.40 37.76 38.74 39.28 40.20 43.47 52.34 56.50 60.33 60.42 59.69 57.91 56.11 55.33 54.73 54.52 54.63 54.56 54.13 54.17
35.88 36.79 37.61 39.34 41.15 42.47 42.34 42.73 42.24 41.54 40.38 39.90 37.70 38.25 35.69 33.13 31.91 32.71 32.37 32.35 32.67 33.45 34.40 35.13 35.96 36.31 36.71 37.03 41.67 44.53 49.66 54.01 57.74 59.47 58.76 57.00 55.73 54.75 54.46 54.28 54.13 54.31 54.05
31.93 32.89 34.02 34.80 35.32 36.01 35.77 38.18 40.70 39.84 39.26 38.24 38.25 37.42 35.62 34.90 33.38 32.43 32.59 33.12 31.79 32.59 32.90 33.04 33.92 34.60 35.16 35.41 38.69 42.20 45.18 48.36 50.91 54.06 57.09 58.22 56.39 54.98 54.10 53.91 53.77 53.66 53.59
30.63 30.78 30.86 30.93 31.13 31.97 32.13 33.24 34.37 35.37 37.16 36.13 37.38 36.72 35.25 34.88 34.59 32.51 32.51 33.18 33.50 33.01 32.67 33.01 33.50 33.24 33.96 33.92 34.25 37.25 43.16 45.95 48.25 50.45 52.32 54.66 56.31 54.90 53.90 53.48 53.35 53.55 53.51
28.66 29.00 29.53 29.01 29.34 29.47 29.47 30.31 31.15 32.29 33.30 34.47 35.14 35.75 35.73 35.04 34.45 33.73 32.51 34.82 33.04 33.12 32.21 32.45 31.99 32.79 33.22 33.04 35.63 39.56 41.99 44.60 46.75 48.81 51.05 53.11 55.19 53.98 53.46 52.97 52.86 53.27 53.44
25.89 26.70 27.61 27.62 27.81 28.28 28.46 28.75 28.05 28.74 29.64 30.31 31.79 33.11 35.00 35.54 37.16 36.02 34.43 33.78 33.72 32.72 30.96 30.73 32.04 32.24 33.67 32.07 33.04 37.50 39.94 42.93 45.27 47.05 50.20 53.01 53.95 53.05 52.33 52.10 51.84 52.01 52.66
25.66 26.11 25.94 26.40 26.16 26.89 27.10 26.81 26.52 26.50 27.31 28.41 28.72 30.09 31.22 32.91 34.35 34.36 33.97 33.32 31.59 32.89 33.86 32.32 30.28 31.06 31.80 32.08 33.31 37.29 35.45 40.62 43.33 45.51 47.86 52.13 52.42 52.09 51.21 51.09 50.98 50.73 51.24
26.81 24.56 24.30 24.11 24.67 24.83 24.92 25.15 24.22 24.11 24.88 25.58 26.34 28.19 28.53 30.43 32.50 32.64 33.00 32.70 31.60 29.73 30.85 33.30 31.18 31.38 31.35 31.39 32.81 32.40 32.94 37.24 41.22 43.54 46.57 50.48 51.05 50.33 50.50 50.55 50.37 50.08 50.26
24.30 24.14 24.14 23.85 23.67 23.91 23.60 23.01 22.83 23.86 23.14 23.44 24.87 24.58 25.77 27.34 29.03 30.27 31.30 31.76 31.27 30.27 28.60 31.79 33.78 32.25 33.04 32.92 32.69 32.76 32.37 36.29 38.47 40.85 43.84 46.87 49.50 49.48 49.43 49.34 49.26 48.93 49.11
24.16 24.12 24.00 23.62 23.28 22.86 22.84 22.07 21.72 22.12 21.85 22.23 22.66 23.18 24.44 25.49 25.60 26.75 27.87 29.33 29.14 28.36 27.32 29.05 31.95 32.79 32.54 32.25 33.76 31.13 32.08 32.23 33.57 38.32 40.54 43.28 46.23 47.97 48.66 48.62 47.95 47.77 47.67
24.07 23.65 23.73 23.07 22.76 22.62 22.02 21.68 21.20 21.24 20.70 20.99 21.95 22.21 22.60 25.40 24.03 24.07 25.01 25.45 26.59 27.58 27.34 25.43 28.11 29.49 30.44 32.53 32.18 31.59 31.60 31.58 31.78 35.61 39.01 40.80 43.13 45.19 46.45 47.17 46.96 46.72 46.66
22.47 22.43 22.48 21.71 21.40 21.60 21.44 21.60 21.53 21.48 21.13 21.23 21.71 21.90 22.32 22.67 22.79 23.49 23.60 23.86 24.64 26.61 26.28 26.16 26.01 28.21 29.04 30.32 30.85 30.82 30.75 31.82 31.30 34.66 38.01 39.30 40.36 42.98 44.84 45.84 45.69 45.10 44.59
20.36 19.45 19.18 19.02 19.29 19.47 20.10 21.02 21.87 21.50 21.52 22.21 22.81 22.87 22.62 22.38 22.21 22.23 23.12 23.66 24.79 24.39 24.99 24.92 25.16 25.70 26.68 28.40 28.03 28.66 29.09 29.44 30.47 31.76 33.63 35.45 37.11 39.40 42.40 44.29 44.31 43.07 43.10
17.82 17.73 17.24 16.86 17.09 17.51 19.70 19.65 20.09 19.66 19.52 19.74 20.78 21.69 22.37 23.27 25.77 25.79 24.00 23.12 22.98 22.62 23.54 24.26 24.23 25.00 25.04 25.40 25.96 27.82 27.37 29.27 30.59 30.67 31.11 30.14 31.73 33.11 35.01 40.58 40.86 41.41 42.76
15.20 15.18 14.82 14.32 13.79 15.80 19.21 21.06 21.06 18.49 18.02 17.29 16.51 17.58 18.28 18.93 20.93 23.90 25.60 26.70 26.08 23.50 22.07 22.26 23.58 22.97 24.16 26.10 27.09 27.39 27.94 27.27 25.85 29.92 29.45 30.09 30.08 29.57 31.59 34.42 39.13 41.76 42.56
12.86 12.12 12.07 12.06 11.42 12.27 17.72 19.66 19.84 17.34 16.26 15.65 15.66 15.81 16.26 17.82 17.53 17.86 20.17 22.17 22.76 23.85 24.85 21.86 20.00 20.98 21.82 24.60 26.51 26.85 27.37 27.43 27.31 29.40 28.06 27.85 29.08 27.77 29.99 32.20 37.50 40.16 41.68
10.01 9.69 9.62 9.44 10.34 11.08 16.39 17.56 18.40 16.36 14.65 14.46 14.72 15.04 14.88 15.25 16.23 17.06 17.12 17.04 18.21 19.22 20.21 20.95 20.39 20.73 21.92 23.40 24.39 25.59 25.70 26.78 29.17 29.96 28.01 25.84 28.96 28.41 29.09 29.77 35.42 37.61 39.91
7.42 6.23 9.41 6.98 6.37 6.82 13.44 16.54 16.67 14.65 13.55 13.42 14.43 15.06 14.89 14.64 17.40 19.92 17.93 16.89 17.61 18.26 21.76 23.47 24.60 25.88 27.17 28.20 27.78 25.11 23.38 24.80 24.12 25.95 28.17 26.97 28.21 27.71 27.48 28.58 29.94 35.77 37.79
7.26 7.61 7.23 6.23 5.74 4.35 11.24 14.92 16.34 14.38 11.47 12.59 13.56 14.77 17.53 17.75 20.22 21.41 18.26 16.40 14.06 15.46 16.81 16.44 17.82 19.94 21.94 21.42 24.46 23.70 23.29 21.38 22.85 24.45 28.68 24.80 26.82 22.54 21.01 26.28 28.88 29.41 32.22